STARLINK-36929, 68067

Orbit data source: Space-Track

STARLINK-36929, 68067 is a payload satellite owned by SpaceX/Seattle (US) in LEO that was launched on Mon, 02 Mar 2026 UTC via an FALCON 9 launch vehicle from the Air Force Eastern Test Range (AFETR). Payload-class satellites include a variety of spacecraft equipped with specific instruments for various scientific and technological missions. These include communications satellites like Starlink; space stations such as the ISS; scientific satellites like the Hubble; Earth observation satellites from companies like Planet Labs, Umbra, and HawkEye 360; GPS; miniature CubeSats for education and research; and military/defense satellites.

Loading next visibility...
Identifier
68067, 2026-041AD
Orbit
LEO
Country
Flag of USUS
Related business
Manufacturer
SpaceX/Seattle
Mission
Operational Commercial Communications
Bus & Motor
STARLINK V2MO, Unknown motor
Mass
575 kg wet, ~530 kg dry
Launch date (UTC)
2026-03-02 (2 months ago)
Launch vehicle
FALCON 9
Launch site
Air Force Eastern Test Range (AFETR)
Object type
Payload
Rocket body
Debris
Shape & HBR
Box + 2 Pan, 17.7 m
Radar Cross Section
36.964 m²

Expand to show TLE details & history
Last TLE update: 2 days ago

TLE from 2 days ago
0 STARLINK-36929
1 68067U 26041AD  26117.46822817  .00029589  00000-0  53745-3 0  9995
2 68067  53.1596 182.8053 0001306  93.0138 267.1020 15.49340353  8866
Epoch: 2026-04-27T11:14Z
TLE epoch observation values (Epoch: 2026-04-27T11:14:14.913Z)
Latitude
-0.00009°
Longitude
158.78564°
Altitude
419.607 km
Speed
7.661 km/s
True Right ascension
12h 11m 13s
True Declination
0° 00' 00"
Sunlit
Object was in full shadow at epoch
Visualization orbit readout
Latitude
Unknown
Longitude
Unknown
Altitude
Unknown
Speed
Unknown
Apparent Right ascension
Unknown
Apparent Declination
Unknown
Sunlit
N/A
Visualization observer readout
Local Sidereal Time
18:17:54
Azimuth
Unknown
Elevation
Unknown
Doppler factor
Unknown
Orbital elements
Apogee altitude
419.801 km
Perigee altitude
418.025 km
Semi-major axis
6,797.05 km
Eccentricity
0.00013
Inclination
53.1596°
RAAN
182.8053°
Arg. of periapsis
93.0138°
True anomaly
267.08705°
Mean anomaly
267.102°
Eccentric anomaly
267.09453°
Mean motion
3.87313 °/min
Orbital period
92.95 mins
BSTAR
0.00053745
Loading maneuver chart data...
Computing Atmospheric mass density...
Loading historical data...
Loading historical data...
Loading historical data...
Loading historical data...
Loading historical data...
Loading historical data...
Loading historical data...

Documentation

Showing up to 5 results
|